Regional Weather Roundup
Issued by NWS Charleston, SC

Current Version | Previous Version | Text Only | Print | Product List | Glossary Off
Versions: 1 2 3 4 5 6 7 8 9 10 11 12 13 14 15 16 17 18 19 20 21 22 23 24 25 26 27 28 29 30 31 32 33 34 35 36 37 38 39 40 41 42 43 44 45 46 47 48 49 50
000 ASUS42 KCHS 261528 RWRCHS REGIONAL WEATHER ROUNDUP NATIONAL WEATHER SERVICE CHARLESTON SC 1100 AM EDT TUE JUL 26 2016 NOTE: "FAIR" INDICATES FEW OR NO CLOUDS BELOW 12,000 FEET WITH NO SIGNIFICANT WEATHER AND/OR OBSTRUCTIONS TO VISIBILITY. NOT ALL STATIONS ARE QUALITY CONTROLLED. USE DATA WITH CAUTION... ESPECIALLY DEWPOINT OBSERVATIONS. SCZ027-030-031-034>040-042>050-261600- ...SOUTHEAST SOUTH CAROLINA... CITY SKY/WX TMP DP RH WIND PRES REMARKS N CHARLESTON MOSUNNY 89 74 60 VRB3 30.06S HX 98 WATERFRONT PRK N/A 86 75 69 VRB2 30.05S HX 95 MOUNT PLEASANT FAIR 90 75 62 SW6 30.07S HX 100 JOHNS ISLAND FAIR 90 75 62 VRB6 30.07S HX 100 PINOPOLIS N/A 84 75 74 VRB2 29.99S HX 92 MONCKS CORNER FAIR 88 72 58 SW3 30.06S HX 94 SUMMERVILLE FAIR 90 73 58 W6 30.07S HX 98 BEAUFORT MCAS MOSUNNY 91 72 53 NW8 30.08R HX 98 BEAUFORT ARPT FAIR 90 73 58 W8 30.07S HX 98 HILTON HEAD IS SUNNY 93 72 49 W3 30.08F HX 100 WALTERBORO SUNNY 91 70 49 SW5 30.07F HX 97 ALLENDALE FAIR 90 72 55 VRB5 30.06S HX 96 ...SOUTHERN MIDLANDS AND PEE DEE... CITY SKY/WX TMP DP RH WIND PRES REMARKS GEORGETOWN FAIR 88 73 62 SW7 30.07S HX 96 KINGSTREE FAIR 90 72 55 SW5 30.05S HX 96 ORANGEBURG SUNNY 89 75 63 SW7 30.06S HX 99 BARNWELL NOT AVBL AIKEN FAIR 90 70 51 SW9 30.10S HX 95 MANNING FAIR 88 73 62 SW5 30.05S HX 96 COLUMBIA SUNNY 92 73 53 SW8 30.04S HX 100 SUMTER NOT AVBL FLORENCE SUNNY 87 74 64 SW7 30.05S HX 95 MYRTLE BEACH SUNNY 90 70 51 W7 30.07F HX 95 N MYRTLE BEACH SUNNY 88 76 67 S8 30.05S HX 99 $$ GAZ063-065-086>088-099>101-113>116-118-119-134>141-150-261600- ...SOUTHEAST GEORGIA... CITY SKY/WX TMP DP RH WIND PRES REMARKS SAVANNAH ARPT MOSUNNY 89 70 53 W8 30.08S HX 94 HUNTER AAF NOT AVBL FORT STEWART NOT AVBL STATESBORO SUNNY 89 75 62 W5 30.08S HX 99 SYLVANIA NOT AVBL CLAXTON FAIR 89 73 57 CALM 30.08S HX 96 ...CSRA...CENTRAL AND FAR SOUTHEAST GEORGIA... CITY SKY/WX TMP DP RH WIND PRES REMARKS THOMSON NOT AVBL AUGUSTA-BUSH SUNNY 91 70 49 W3 30.05S HX 96 AUGUSTA-DANIEL SUNNY 91 70 49 SW6 30.08R HX 96 SWAINSBORO FAIR 90 70 51 N5 30.09S HX 95 VIDALIA MOSUNNY 90 70 51 S3 30.09S HX 95 EASTMAN FAIR 89 60 37 CALM 30.11R HAZLEHURST FAIR 90 77 65 CALM 30.08S HX 102 ALMA SUNNY 86 74 67 S3 30.09S HX 94 WAYCROSS MOSUNNY 92 75 58 S7 30.09S HX 103 JESUP FAIR 90 79 70 S5 30.09S HX 105 BAXLEY FAIR 88 79 74 SW3 30.09R HX 102 BRUNSWICK MOSUNNY 90 77 66 S3 30.10R HX 102 SAINT SIMONS SUNNY 86 73 65 CALM 30.09R HX 93 $$ SCZ027-028-034-036>038-045-046-048>050-GAZ119-141-261600- ...LAKE AND SUPPLEMENTAL COASTAL OBSERVATIONS... STATION/POSITION TIME TEMP WIND PRES WAVE SWELL AIR SEA DIR/SP/G HT/PER HT/PER/DIR (UTC) (F) (DEG/KT/KT) (MB) (FT/S) (FT/S/D) WINYAH BAY 1445 87 250/ 6 1017.0S LAKE MURRAY NOT AVBL ACE BASIN NERRS 1400 85 260/ 3 1018.0S FORT PULASKI 1500 86 87 280/ 3/ 3 1019.0S SAPELO ISLAND 1500 88 220/ 3 1019.0S $$ ANZ835-935-AMZ111-154-330-350-352-354-370-450-454-472-261600- ...C-MAN AND BUOY OBSERVATIONS... STATION/POSITION TIME TEMP WIND PRES WAVE SWELL AIR SEA DIR/SP/G HT/PER HT/PER/DIR (UTC) (F) (DEG/KT/KT) (MB) (FT/S) (FT/S/D) BUOY 41004 1450 85 86 260/ 12/ 16 1018.1R 2/ 4 2/160/ 8 BUOY 41008 1450 84 87 250/ 2/ 4 1019.0R 2/ 5 2/190/ 5 FOLLY BEACH CMAN 1500 85 200/ 9/ 11 1018.5R CAPERS NEARSHORE 1508 83 84 230/ 10/ 14 1018.1S FRIPP NEARSHORE 1508 85 86 230/ 8/ 12 1018.0R STATION/POSITION TIME TEMP WIND PRES WAVE SWELL AIR SEA DIR/SP/G HT/PER HT/PER/DIR (UTC) (F) (DEG/KT/KT) (MB) (FT/S) (FT/S/D) 5E ST. MARYS GA 1501 86 N/A 2/ 8 FRYING PAN BUOY 1500 84 85 250/ 12/ 14 1018.0R BUOY 41025 1450 83 84 240/ 17/ 21 1016.3F 5/ 6 2/320/13 CAPE LOOKOUT NC 1500 85 250/ 17/ 20 1016.9R BUOY 41002 1450 84 84 250/ 10/ 12 1019.0F 2/ 4 2/120/ 8 BUOY 41010 1420 85 86 220/ 6/ 8 1019.8R ST AUGUSTINE FL 1500 82 85 130/ 7/ 8 1020.0R $$

USA.gov is the U.S. government's official web portal to all federal, state and local government web resources and services.